Regional Weather Roundup
Issued by NWS

Home | Current Version | Previous Version | Text Only | Print | Product List | Glossary Off
Versions: 1 2 3 4 5 6 7 8 9 10 11 12 13 14 15 16 17 18 19 20 21 22 23 24 25 26 27 28 29 30 31 32 33 34 35 36 37 38 39 40 41 42 43 44 45 46 47 48 49 50

000
ASUS43 KIND 011459
RWRIN

WEATHER ROUNDUP FOR INDIANA
NATIONAL WEATHER SERVICE INDIANAPOLIS IN
1100 AM EDT MON SEP 01 2014

NOTE: "FAIR" INDICATES FEW OR NO CLOUDS BELOW 12,000 FEET WITH NO
SIGNIFICANT WEATHER AND/OR OBSTRUCTIONS TO VISIBILITY.

* - STATION DOES NOT REPORT WEATHER SUCH AS PRECIPITATION OR FOG.

+ - STATION NOT QUALITY CONTROLLED BY THE NATIONAL WEATHER SERVICE.
    USE DATA WITH CAUTION...ESPECIALLY DEWPOINT AND RELATIVE
    HUMIDITY OBSERVATIONS.

INZ001>003-010>013-019-020-011600-
NORTHWEST INDIANA

CITY           SKY/WX    TMP DP  RH WIND       PRES   REMARKS
GARY /AIRPORT/ CLOUDY    77  72  83 S12G23    29.77F FOG
KNOX *+        CLOUDY    74  69  84 S14G21    29.81S
MONTICELLO +   CLOUDY    76  72  87 S15G21    29.84S
VALPARAISO     CLOUDY    74  71  91 S14G23    29.80F

$$

LMZ046-743>745-011600-
SOUTHERN LAKE MICHIGAN

STATION/POSITION TIME  TEMP WIND        PRES
                       AIR  DIR/SP/G
                 (UTC) (F)  (DEG/KT/KT) (MB)
MICHIGAN CITY    1400   74  170/ 16/ 21   N/A

$$

INZ004-005-014>016-021>024-011600-
NORTH CENTRAL INDIANA

CITY           SKY/WX    TMP DP  RH WIND       PRES   REMARKS
ELKHART        CLOUDY    75  72  88 S14       29.83F
GOSHEN         CLOUDY    78  71  79 S15       29.84F
SOUTH BEND     CLOUDY    75  70  84 S14G22    29.82S

$$

INZ006>009-017-018-025>027-011600-
NORTHEAST INDIANA

CITY           SKY/WX    TMP DP  RH WIND       PRES   REMARKS
ANGOLA *+      CLOUDY    73  66  78 S9        29.86F
FORT WAYNE     PTSUNNY   78  71  79 S17G26    29.89F

$$

INZ028-029-035-036-043>045-051>053-011600-
WEST CENTRAL INDIANA

CITY           SKY/WX    TMP DP  RH WIND       PRES   REMARKS
GREENCASTLE +  CLOUDY    73  70  88 S8        29.92R
LAFAYETTE      CLOUDY    76  71  85 S15G22    29.84F
TERRE HAUTE    CLOUDY    78  71  79 S14       29.89F

$$

INZ030>032-037>040-046>048-054>057-064-065-011600-
CENTRAL INDIANA

CITY           SKY/WX    TMP DP  RH WIND       PRES   REMARKS
FRANKFORT +    CLOUDY    78  72  81 S10G23    29.89S
INDIANAPOLIS   CLOUDY    76  71  85 S16       29.91F
-EAGLE CREEK   PTSUNNY   77  70  79 S12G18    29.91S
KOKOMO *+      PTSUNNY   79  70  73 SW17G28   29.88F
MT COMFORT *+  CLOUDY    77  77 100 S13       29.93F
SHELBYVILLE    CLOUDY    79  71  76 SW16G22   29.94F

$$

INZ033-034-041-042-049-050-058-059-011600-
EAST CENTRAL INDIANA

CITY           SKY/WX    TMP DP  RH WIND       PRES   REMARKS
MUNCIE         PTSUNNY   77  70  79 SW12G17   29.92F

$$

INZ060-061-067>069-081>083-085>088-011600-
SOUTHWEST INDIANA

CITY           SKY/WX    TMP DP  RH WIND       PRES   REMARKS
EVANSVILLE     MOSUNNY   78  72  81 S15       29.97F

$$

INZ062-063-066-070>080-084-089>092-011600-
SOUTH CENTRAL AND SOUTHEAST INDIANA

CITY           SKY/WX    TMP DP  RH WIND       PRES   REMARKS
BLOOMINGTON    PTSUNNY   77  72  84 SW14G24   29.94F

$$




USA.gov is the U.S. government's official web portal to all federal, state and local government web resources and services.